Location: Festilli
(46.4000°N, 11.6667°E)
Time: 18:03:16
(UTC+00:00)

Cosmos 2278 Rocket - Pass Details

Date: 03 March 2021
Orbit: 841 x 845 km, 71.0° (Epoch: 15 April)

Event Time Altitude Azimuth Distance (km) Brightness Sun altitude
Rises 20:24:25 0° 330° (NNW) 3,414 6.2 -34.4°
Reaches altitude 10° 20:26:54 10° 327° (NNW) 2,474 5.3 -34.8°
Enters shadow 20:30:37 40° 308° (NW) 1,231 3.3 -35.3°
